Time,TemperatureF,DewpointF,PressureIn,WindDirection,WindDirectionDegrees,WindSpeedMPH,WindSpeedGustMPH,Humidity,HourlyPrecipIn,Conditions,Clouds,dailyrainin,SoftwareType,DateUTC
2013-01-18 00:05:00,48.6,17.0,30.17,NNE,29,3.0,7.0,28,0.00,,---,0.00,VWS V14.01,2013-01-18 07:05:00,
2013-01-18 00:10:00,49.0,16.5,30.18,NE,47,2.0,7.0,27,0.00,,---,0.00,VWS V14.01,2013-01-18 07:10:00,
2013-01-18 00:15:00,48.9,16.4,30.18,NNE,13,3.0,7.0,27,0.00,,---,0.00,VWS V14.01,2013-01-18 07:15:00,
2013-01-18 00:20:00,48.9,16.4,30.18,NE,37,2.0,7.0,27,0.00,,---,0.00,VWS V14.01,2013-01-18 07:20:00,
2013-01-18 00:25:00,48.8,16.3,30.18,NE,48,2.0,7.0,27,0.00,,---,0.00,VWS V14.01,2013-01-18 07:25:00,
2013-01-18 00:30:00,48.4,16.8,30.18,NE,55,3.0,7.0,28,0.00,,---,0.00,VWS V14.01,2013-01-18 07:30:00,
2013-01-18 00:35:00,47.5,16.8,30.18,NE,51,4.0,4.0,29,0.00,,---,0.00,VWS V14.01,2013-01-18 07:35:00,
2013-01-18 00:40:00,46.6,16.8,30.18,NE,55,4.0,6.0,30,0.00,,---,0.00,VWS V14.01,2013-01-18 07:40:00,
2013-01-18 00:45:00,46.4,16.7,30.18,NE,49,3.0,6.0,30,0.00,,---,0.00,VWS V14.01,2013-01-18 07:45:00,
2013-01-18 00:50:00,46.6,16.8,30.18,NE,42,5.0,6.0,30,0.00,,---,0.00,VWS V14.01,2013-01-18 07:50:00,
2013-01-18 00:55:00,47.9,16.4,30.18,NE,47,4.0,7.0,28,0.00,,---,0.00,VWS V14.01,2013-01-18 07:55:00,
2013-01-18 01:00:00,48.6,16.1,30.17,NNE,25,7.0,9.0,27,0.00,,---,0.00,VWS V14.01,2013-01-18 08:00:00,
2013-01-18 01:05:00,49.0,16.5,30.17,NNE,25,3.0,7.0,27,0.00,,---,0.00,VWS V14.01,2013-01-18 08:05:00,
2013-01-18 01:10:00,49.1,16.6,30.17,NE,44,4.0,7.0,27,0.00,,---,0.00,VWS V14.01,2013-01-18 08:10:00,
2013-01-18 01:15:00,49.2,16.7,30.17,NE,36,3.0,7.0,27,0.00,,---,0.00,VWS V14.01,2013-01-18 08:15:00,
2013-01-18 01:20:00,48.7,16.2,30.18,ENE,66,2.0,7.0,27,0.00,,---,0.00,VWS V14.01,2013-01-18 08:20:00,
2013-01-18 01:26:00,47.6,16.1,30.18,ENE,66,2.0,7.0,28,0.00,,---,0.00,VWS V14.01,2013-01-18 08:26:00,
2013-01-18 01:31:00,46.0,17.1,30.18,ENE,58,2.0,7.0,31,0.00,,---,0.00,VWS V14.01,2013-01-18 08:31:00,
2013-01-18 01:36:00,45.0,16.9,30.18,NE,46,1.0,5.0,32,0.00,,---,0.00,VWS V14.01,2013-01-18 08:36:00,
2013-01-18 01:41:00,45.4,16.5,30.18,NE,56,1.0,5.0,31,0.00,,---,0.00,VWS V14.01,2013-01-18 08:41:00,
2013-01-18 01:46:00,45.4,16.5,30.18,ENE,58,1.0,5.0,31,0.00,,---,0.00,VWS V14.01,2013-01-18 08:46:00,
2013-01-18 01:51:00,45.7,16.8,30.18,NE,42,1.0,5.0,31,0.00,,---,0.00,VWS V14.01,2013-01-18 08:51:00,
2013-01-18 01:56:00,45.9,17.0,30.18,ENE,58,3.0,5.0,31,0.00,,---,0.00,VWS V14.01,2013-01-18 08:56:00,
2013-01-18 02:01:00,46.0,17.1,30.18,ENE,63,2.0,5.0,31,0.00,,---,0.00,VWS V14.01,2013-01-18 09:01:00,
2013-01-18 02:06:00,45.9,17.0,30.18,NE,47,4.0,6.0,31,0.00,,---,0.00,VWS V14.01,2013-01-18 09:06:00,
2013-01-18 02:11:00,46.1,16.4,30.18,NE,51,3.0,6.0,30,0.00,,---,0.00,VWS V14.01,2013-01-18 09:11:00,
2013-01-18 02:16:00,47.0,16.4,30.18,NE,36,5.0,8.0,29,0.00,,---,0.00,VWS V14.01,2013-01-18 09:16:00,
2013-01-18 02:21:00,48.3,16.7,30.18,NE,37,7.0,12.0,28,0.00,,---,0.00,VWS V14.01,2013-01-18 09:21:00,
2013-01-18 02:26:00,48.8,16.3,30.18,NNE,22,4.0,12.0,27,0.00,,---,0.00,VWS V14.01,2013-01-18 09:26:00,
2013-01-18 02:31:00,48.8,16.3,30.18,ENE,71,5.0,12.0,27,0.00,,---,0.00,VWS V14.01,2013-01-18 09:31:00,
2013-01-18 02:36:00,48.5,16.1,30.18,NNE,30,4.0,8.0,27,0.00,,---,0.00,VWS V14.01,2013-01-18 09:36:00,
2013-01-18 02:41:00,47.6,16.9,30.18,NE,56,2.0,8.0,29,0.00,,---,0.00,VWS V14.01,2013-01-18 09:41:00,
2013-01-18 02:47:00,46.5,16.8,30.17,NE,51,2.0,8.0,30,0.00,,---,0.00,VWS V14.01,2013-01-18 09:47:00,
2013-01-18 02:52:00,46.1,16.4,30.17,NE,34,2.0,8.0,30,0.00,,---,0.00,VWS V14.01,2013-01-18 09:52:00,
2013-01-18 02:57:00,46.0,16.3,30.17,NE,50,1.0,8.0,30,0.00,,---,0.00,VWS V14.01,2013-01-18 09:57:00,
2013-01-18 03:02:00,46.2,16.5,30.17,NE,47,2.0,8.0,30,0.00,,---,0.00,VWS V14.01,2013-01-18 10:02:00,
2013-01-18 03:07:00,46.3,16.6,30.17,ENE,77,1.0,2.0,30,0.00,,---,0.00,VWS V14.01,2013-01-18 10:07:00,
2013-01-18 03:12:00,46.0,16.3,30.17,ENE,58,1.0,4.0,30,0.00,,---,0.00,VWS V14.01,2013-01-18 10:12:00,
2013-01-18 03:17:00,45.3,16.5,30.17,ENE,73,0.0,4.0,31,0.00,,---,0.00,VWS V14.01,2013-01-18 10:17:00,
2013-01-18 03:22:00,43.8,16.6,30.17,NE,46,2.0,4.0,33,0.00,,---,0.00,VWS V14.01,2013-01-18 10:22:00,
2013-01-18 03:27:00,43.3,16.8,30.17,ENE,70,2.0,4.0,34,0.00,,---,0.00,VWS V14.01,2013-01-18 10:27:00,
2013-01-18 03:32:00,41.9,16.9,30.17,ENE,71,2.0,4.0,36,0.00,,---,0.00,VWS V14.01,2013-01-18 10:32:00,
2013-01-18 03:37:00,41.1,17.4,30.17,ENE,67,2.0,4.0,38,0.00,,---,0.00,VWS V14.01,2013-01-18 10:37:00,
2013-01-18 03:42:00,41.1,17.4,30.17,ENE,72,2.0,4.0,38,0.00,,---,0.00,VWS V14.01,2013-01-18 10:42:00,
2013-01-18 03:47:00,40.6,17.6,30.17,ENE,68,1.0,4.0,39,0.00,,---,0.00,VWS V14.01,2013-01-18 10:47:00,
2013-01-18 03:52:00,40.0,17.6,30.17,ENE,58,2.0,4.0,40,0.00,,---,0.00,VWS V14.01,2013-01-18 10:52:00,
2013-01-18 03:57:00,39.5,17.8,30.17,ENE,58,1.0,4.0,41,0.00,,---,0.00,VWS V14.01,2013-01-18 10:57:00,
2013-01-18 04:02:00,39.0,17.9,30.17,ENE,71,2.0,4.0,42,0.00,,---,0.00,VWS V14.01,2013-01-18 11:02:00,
2013-01-18 04:08:00,38.6,17.5,30.17,NE,53,1.0,4.0,42,0.00,,---,0.00,VWS V14.01,2013-01-18 11:08:00,
2013-01-18 04:13:00,38.4,17.9,30.17,ENE,63,2.0,4.0,43,0.00,,---,0.00,VWS V14.01,2013-01-18 11:13:00,
2013-01-18 04:18:00,38.5,18.0,30.16,NE,55,2.0,4.0,43,0.00,,---,0.00,VWS V14.01,2013-01-18 11:18:00,
2013-01-18 04:23:00,38.4,17.9,30.16,NE,53,1.0,4.0,43,0.00,,---,0.00,VWS V14.01,2013-01-18 11:23:00,
2013-01-18 04:28:00,38.4,17.9,30.16,ENE,62,1.0,4.0,43,0.00,,---,0.00,VWS V14.01,2013-01-18 11:28:00,
2013-01-18 04:33:00,38.7,17.6,30.16,NE,55,3.0,3.0,42,0.00,,---,0.00,VWS V14.01,2013-01-18 11:33:00,
2013-01-18 04:38:00,39.1,18.0,30.16,ENE,68,2.0,4.0,42,0.00,,---,0.00,VWS V14.01,2013-01-18 11:38:00,
2013-01-18 04:43:00,39.1,18.0,30.16,ENE,61,2.0,5.0,42,0.00,,---,0.00,VWS V14.01,2013-01-18 11:43:00,
2013-01-18 04:48:00,39.0,17.9,30.16,NE,51,3.0,6.0,42,0.00,,---,0.00,VWS V14.01,2013-01-18 11:48:00,
2013-01-18 04:53:00,38.8,17.7,30.16,NE,51,3.0,6.0,42,0.00,,---,0.00,VWS V14.01,2013-01-18 11:53:00,
2013-01-18 04:58:00,39.2,17.5,30.16,ENE,58,2.0,6.0,41,0.00,,---,0.00,VWS V14.01,2013-01-18 11:58:00,
2013-01-18 05:03:00,40.1,17.7,30.16,NE,51,1.0,2.0,40,0.00,,---,0.00,VWS V14.01,2013-01-18 12:03:00,
2013-01-18 05:08:00,40.1,17.7,30.16,NE,43,5.0,6.0,40,0.00,,---,0.00,VWS V14.01,2013-01-18 12:08:00,
2013-01-18 05:13:00,40.8,17.2,30.15,NE,37,3.0,6.0,38,0.00,,---,0.00,VWS V14.01,2013-01-18 12:13:00,
2013-01-18 05:19:00,41.0,17.4,30.15,NE,50,2.0,6.0,38,0.00,,---,0.00,VWS V14.01,2013-01-18 12:19:00,
2013-01-18 05:24:00,41.4,17.1,30.15,NE,55,3.0,6.0,37,0.00,,---,0.00,VWS V14.01,2013-01-18 12:24:00,
2013-01-18 05:29:00,42.1,17.1,30.16,NE,49,3.0,6.0,36,0.00,,---,0.00,VWS V14.01,2013-01-18 12:29:00,
2013-01-18 05:34:00,42.2,17.2,30.16,ENE,65,1.0,2.0,36,0.00,,---,0.00,VWS V14.01,2013-01-18 12:34:00,
2013-01-18 05:39:00,41.4,17.1,30.16,ENE,71,1.0,4.0,37,0.00,,---,0.00,VWS V14.01,2013-01-18 12:39:00,
2013-01-18 05:44:00,41.0,17.4,30.16,ENE,71,1.0,4.0,38,0.00,,---,0.00,VWS V14.01,2013-01-18 12:44:00,
2013-01-18 05:49:00,41.1,17.4,30.16,ENE,67,2.0,4.0,38,0.00,,---,0.00,VWS V14.01,2013-01-18 12:49:00,
2013-01-18 05:54:00,41.0,17.4,30.16,NE,44,3.0,4.0,38,0.00,,---,0.00,VWS V14.01,2013-01-18 12:54:00,
2013-01-18 06:00:00,41.2,17.5,30.16,NE,49,1.0,4.0,38,0.00,,---,0.00,VWS V14.01,2013-01-18 13:00:00,
2013-01-18 06:05:00,41.9,16.9,30.16,ENE,75,1.0,5.0,36,0.00,,---,0.00,VWS V14.01,2013-01-18 13:05:00,
2013-01-18 06:10:00,42.4,17.4,30.16,NNE,25,0.0,5.0,36,0.00,,---,0.00,VWS V14.01,2013-01-18 13:10:00,
2013-01-18 06:15:00,42.5,17.4,30.17,ENE,78,2.0,5.0,36,0.00,,---,0.00,VWS V14.01,2013-01-18 13:15:00,
2013-01-18 06:20:00,41.0,17.4,30.17,ENE,64,3.0,5.0,38,0.00,,---,0.00,VWS V14.01,2013-01-18 13:20:00,
2013-01-18 06:25:00,40.1,17.7,30.17,NE,50,2.0,5.0,40,0.00,,---,0.00,VWS V14.01,2013-01-18 13:25:00,
2013-01-18 06:30:00,40.4,17.4,30.17,NE,51,1.0,5.0,39,0.00,,---,0.00,VWS V14.01,2013-01-18 13:30:00,
2013-01-18 06:35:00,40.6,17.6,30.17,ENE,63,1.0,3.0,39,0.00,,---,0.00,VWS V14.01,2013-01-18 13:35:00,
2013-01-18 06:40:00,40.1,17.7,30.17,ENE,68,1.0,3.0,40,0.00,,---,0.00,VWS V14.01,2013-01-18 13:40:00,
2013-01-18 06:45:00,39.6,17.9,30.17,NE,46,1.0,3.0,41,0.00,,---,0.00,VWS V14.01,2013-01-18 13:45:00,
2013-01-18 06:50:00,39.4,17.7,30.17,ENE,58,2.0,3.0,41,0.00,,---,0.00,VWS V14.01,2013-01-18 13:50:00,
2013-01-18 06:55:00,39.5,17.8,30.17,ENE,59,1.0,5.0,41,0.00,,---,0.00,VWS V14.01,2013-01-18 13:55:00,
2013-01-18 07:01:00,39.7,17.4,30.17,ENE,71,1.0,5.0,40,0.00,,---,0.00,VWS V14.01,2013-01-18 14:01:00,
2013-01-18 07:06:00,39.4,17.7,30.17,East,79,1.0,2.0,41,0.00,,---,0.00,VWS V14.01,2013-01-18 14:06:00,
2013-01-18 07:11:00,38.5,18.0,30.17,NE,55,1.0,3.0,43,0.00,,---,0.00,VWS V14.01,2013-01-18 14:11:00,
2013-01-18 07:16:00,37.9,18.0,30.17,East,80,0.0,3.0,44,0.00,,---,0.00,VWS V14.01,2013-01-18 14:16:00,
2013-01-18 07:21:00,37.6,17.7,30.17,ENE,60,1.0,3.0,44,0.00,,---,0.00,VWS V14.01,2013-01-18 14:21:00,
2013-01-18 07:26:00,37.7,18.3,30.17,East,79,3.0,3.0,45,0.00,,---,0.00,VWS V14.01,2013-01-18 14:26:00,
2013-01-18 07:31:00,37.6,18.2,30.18,ENE,68,3.0,5.0,45,0.00,,---,0.00,VWS V14.01,2013-01-18 14:31:00,
2013-01-18 07:36:00,37.4,18.0,30.18,East,82,0.0,1.0,45,0.00,,---,0.00,VWS V14.01,2013-01-18 14:36:00,
2013-01-18 07:41:00,37.2,18.3,30.18,NE,55,3.0,4.0,46,0.00,,---,0.00,VWS V14.01,2013-01-18 14:41:00,
2013-01-18 07:46:00,37.4,18.5,30.18,ENE,68,2.0,5.0,46,0.00,,---,0.00,VWS V14.01,2013-01-18 14:46:00,
2013-01-18 07:51:00,37.4,18.5,30.18,ENE,64,1.0,5.0,46,0.00,,---,0.00,VWS V14.01,2013-01-18 14:51:00,
2013-01-18 07:56:00,37.5,18.6,30.18,ENE,66,1.0,5.0,46,0.00,,---,0.00,VWS V14.01,2013-01-18 14:56:00,
2013-01-18 08:01:00,37.7,18.3,30.18,ENE,66,0.0,5.0,45,0.00,,---,0.00,VWS V14.01,2013-01-18 15:01:00,
2013-01-18 08:06:00,38.0,18.6,30.18,ENE,62,3.0,4.0,45,0.00,,---,0.00,VWS V14.01,2013-01-18 15:06:00,
2013-01-18 08:11:00,38.8,18.8,30.19,ENE,65,1.0,4.0,44,0.00,,---,0.00,VWS V14.01,2013-01-18 15:11:00,
2013-01-18 08:17:00,39.6,19.0,30.18,NE,51,3.0,4.0,43,0.00,,---,0.00,VWS V14.01,2013-01-18 15:17:00,
2013-01-18 10:23:00,56.7,20.3,30.21,NNE,32,3.0,11.0,24,0.00,,---,0.00,VWS V14.01,2013-01-18 17:23:00,
2013-01-18 10:28:00,57.0,20.6,30.21,NNE,13,1.0,11.0,24,0.00,,---,0.00,VWS V14.01,2013-01-18 17:28:00,
2013-01-18 10:33:00,57.6,20.1,30.21,North,9,2.0,11.0,23,0.00,,---,0.00,VWS V14.01,2013-01-18 17:33:00,
2013-01-18 10:38:00,58.0,20.4,30.21,ENE,58,1.0,7.0,23,0.00,,---,0.00,VWS V14.01,2013-01-18 17:38:00,
2013-01-18 10:43:00,58.6,20.9,30.21,ENE,59,1.0,7.0,23,0.00,,---,0.00,VWS V14.01,2013-01-18 17:43:00,
2013-01-18 10:48:00,59.2,21.4,30.21,NE,34,1.0,7.0,23,0.00,,---,0.00,VWS V14.01,2013-01-18 17:48:00,
2013-01-18 10:53:00,59.8,22.0,30.20,NE,50,2.0,7.0,23,0.00,,---,0.00,VWS V14.01,2013-01-18 17:53:00,
2013-01-18 10:58:00,60.5,22.5,30.20,NE,53,2.0,7.0,23,0.00,,---,0.00,VWS V14.01,2013-01-18 17:58:00,
2013-01-18 11:03:00,60.7,22.7,30.20,East,85,2.0,7.0,23,0.00,,---,0.00,VWS V14.01,2013-01-18 18:03:00,
2013-01-18 11:08:00,61.4,21.1,30.20,NE,42,1.0,5.0,21,0.00,,---,0.00,VWS V14.01,2013-01-18 18:08:00,
2013-01-18 11:13:00,61.7,21.4,30.19,ENE,75,1.0,5.0,21,0.00,,---,0.00,VWS V14.01,2013-01-18 18:13:00,
2013-01-18 11:18:00,62.3,21.9,30.19,NE,44,1.0,5.0,21,0.00,,---,0.00,VWS V14.01,2013-01-18 18:18:00,
2013-01-18 11:23:00,63.1,22.6,30.19,ENE,71,1.0,5.0,21,0.00,,---,0.00,VWS V14.01,2013-01-18 18:23:00,
2013-01-18 11:28:00,63.9,22.1,30.19,ENE,58,0.0,5.0,20,0.00,,---,0.00,VWS V14.01,2013-01-18 18:28:00,
2013-01-18 11:33:00,64.7,22.7,30.18,SE,124,1.0,2.0,20,0.00,,---,0.00,VWS V14.01,2013-01-18 18:33:00,
2013-01-18 11:38:00,65.3,22.0,30.18,ENE,58,0.0,5.0,19,0.00,,---,0.00,VWS V14.01,2013-01-18 18:38:00,
2013-01-18 11:43:00,65.4,20.8,30.17,ENE,73,1.0,5.0,18,0.00,,---,0.00,VWS V14.01,2013-01-18 18:43:00,
2013-01-18 11:48:00,65.5,22.2,30.17,SSE,147,2.0,5.0,19,0.00,,---,0.00,VWS V14.01,2013-01-18 18:48:00,
2013-01-18 11:53:00,66.1,21.4,30.17,ENE,58,1.0,5.0,18,0.00,,---,0.00,VWS V14.01,2013-01-18 18:53:00,
2013-01-18 11:58:00,66.2,21.5,30.16,East,94,0.0,5.0,18,0.00,,---,0.00,VWS V14.01,2013-01-18 18:58:00,
2013-01-18 12:03:00,67.1,22.2,30.16,ESE,109,0.0,5.0,18,0.00,,---,0.00,VWS V14.01,2013-01-18 19:03:00,
2013-01-18 12:09:00,67.4,21.1,30.16,NE,47,1.0,4.0,17,0.00,,---,0.00,VWS V14.01,2013-01-18 19:09:00,
2013-01-18 12:14:00,67.4,19.7,30.15,SSW,203,0.0,4.0,16,0.00,,---,0.00,VWS V14.01,2013-01-18 19:14:00,
2013-01-18 12:19:00,68.0,20.2,30.15,SSE,161,0.0,4.0,16,0.00,,---,0.00,VWS V14.01,2013-01-18 19:19:00,
2013-01-18 12:24:00,68.5,20.6,30.14,NE,56,1.0,4.0,16,0.00,,---,0.00,VWS V14.01,2013-01-18 19:24:00,
2013-01-18 12:29:00,68.5,20.6,30.14,NNE,33,0.0,4.0,16,0.00,,---,0.00,VWS V14.01,2013-01-18 19:29:00,
2013-01-18 12:34:00,69.5,21.4,30.13,SE,124,2.0,2.0,16,0.00,,---,0.00,VWS V14.01,2013-01-18 19:34:00,
2013-01-18 12:39:00,69.9,20.2,30.13,SE,133,1.0,2.0,15,0.00,,---,0.00,VWS V14.01,2013-01-18 19:39:00,
2013-01-18 12:44:00,70.1,20.3,30.13,ESE,105,1.0,3.0,15,0.00,,---,0.00,VWS V14.01,2013-01-18 19:44:00,
2013-01-18 12:49:00,70.3,20.5,30.13,WSW,252,0.0,3.0,15,0.00,,---,0.00,VWS V14.01,2013-01-18 19:49:00,
2013-01-18 12:54:00,71.4,19.8,30.12,NNW,341,0.0,3.0,14,0.00,,---,0.00,VWS V14.01,2013-01-18 19:54:00,
2013-01-18 12:59:00,71.6,19.9,30.12,South,176,1.0,3.0,14,0.00,,---,0.00,VWS V14.01,2013-01-18 19:59:00,
2013-01-18 13:05:00,71.6,18.2,30.12,ESE,105,0.0,1.0,13,0.00,,---,0.00,VWS V14.01,2013-01-18 20:05:00,
2013-01-18 13:10:00,71.5,18.1,30.11,ESE,114,1.0,4.0,13,0.00,,---,0.00,VWS V14.01,2013-01-18 20:10:00,
2013-01-18 13:15:00,71.0,17.7,30.11,South,187,0.0,4.0,13,0.00,,---,0.00,VWS V14.01,2013-01-18 20:15:00,
2013-01-18 13:20:00,71.5,18.1,30.11,NNE,12,0.0,4.0,13,0.00,,---,0.00,VWS V14.01,2013-01-18 20:20:00,
2013-01-18 13:25:00,72.1,18.6,30.11,NE,40,1.0,4.0,13,0.00,,---,0.00,VWS V14.01,2013-01-18 20:25:00,
2013-01-18 13:30:00,72.0,16.6,30.10,WNW,292,0.0,4.0,12,0.00,,---,0.00,VWS V14.01,2013-01-18 20:30:00,
2013-01-18 13:35:00,72.2,18.7,30.10,NW,307,1.0,1.0,13,0.00,,---,0.00,VWS V14.01,2013-01-18 20:35:00,
2013-01-18 13:40:00,72.9,17.4,30.10,East,79,0.0,1.0,12,0.00,,---,0.00,VWS V14.01,2013-01-18 20:40:00,
2013-01-18 13:45:00,72.6,17.1,30.09,SSE,152,0.0,4.0,12,0.00,,---,0.00,VWS V14.01,2013-01-18 20:45:00,
2013-01-18 13:50:00,72.5,17.0,30.09,SSW,193,2.0,4.0,12,0.00,,---,0.00,VWS V14.01,2013-01-18 20:50:00,
2013-01-18 13:55:00,72.5,17.0,30.09,SSE,147,0.0,4.0,12,0.00,,---,0.00,VWS V14.01,2013-01-18 20:55:00,
2013-01-18 14:00:00,72.2,16.8,30.09,ENE,65,0.0,4.0,12,0.00,,---,0.00,VWS V14.01,2013-01-18 21:00:00,
2013-01-18 14:05:00,71.7,18.3,30.09,SSE,165,0.0,3.0,13,0.00,,---,0.00,VWS V14.01,2013-01-18 21:05:00,
2013-01-18 14:10:00,72.2,18.7,30.09,SSE,150,0.0,3.0,13,0.00,,---,0.00,VWS V14.01,2013-01-18 21:10:00,
2013-01-18 14:15:00,72.5,15.0,30.09,ESE,118,0.0,3.0,11,0.00,,---,0.00,VWS V14.01,2013-01-18 21:15:00,
2013-01-18 14:21:00,72.8,17.3,30.09,WSW,240,0.0,3.0,12,0.00,,---,0.00,VWS V14.01,2013-01-18 21:21:00,
2013-01-18 14:26:00,72.8,17.3,30.09,West,273,2.0,3.0,12,0.00,,---,0.00,VWS V14.01,2013-01-18 21:26:00,
2013-01-18 14:31:00,72.5,17.0,30.09,West,260,2.0,4.0,12,0.00,,---,0.00,VWS V14.01,2013-01-18 21:31:00,
2013-01-18 14:36:00,72.8,17.3,30.09,South,177,2.0,3.0,12,0.00,,---,0.00,VWS V14.01,2013-01-18 21:36:00,
2013-01-18 14:41:00,73.0,17.4,30.09,SSW,200,2.0,5.0,12,0.00,,---,0.00,VWS V14.01,2013-01-18 21:41:00,
2013-01-18 14:46:00,72.9,15.4,30.09,South,173,0.0,5.0,11,0.00,,---,0.00,VWS V14.01,2013-01-18 21:46:00,
2013-01-18 14:51:00,72.9,17.4,30.08,South,169,1.0,5.0,12,0.00,,---,0.00,VWS V14.01,2013-01-18 21:51:00,
2013-01-18 14:56:00,72.8,17.3,30.08,SW,224,4.0,5.0,12,0.00,,---,0.00,VWS V14.01,2013-01-18 21:56:00,
2013-01-18 15:01:00,72.4,15.0,30.08,SW,232,3.0,5.0,11,0.00,,---,0.00,VWS V14.01,2013-01-18 22:01:00,
2013-01-18 15:06:00,72.5,15.0,30.08,WSW,250,2.0,4.0,11,0.00,,---,0.00,VWS V14.01,2013-01-18 22:06:00,
2013-01-18 15:11:00,72.4,15.0,30.08,West,274,2.0,5.0,11,0.00,,---,0.00,VWS V14.01,2013-01-18 22:11:00,
2013-01-18 15:16:00,72.5,15.0,30.08,South,184,0.0,5.0,11,0.00,,---,0.00,VWS V14.01,2013-01-18 22:16:00,
2013-01-18 15:21:00,72.5,17.0,30.08,WSW,255,1.0,5.0,12,0.00,,---,0.00,VWS V14.01,2013-01-18 22:21:00,
2013-01-18 15:26:00,72.6,15.1,30.08,WSW,246,1.0,5.0,11,0.00,,---,0.00,VWS V14.01,2013-01-18 22:26:00,
2013-01-18 15:31:00,72.7,15.2,30.08,WSW,239,1.0,5.0,11,0.00,,---,0.00,VWS V14.01,2013-01-18 22:31:00,
2013-01-18 15:37:00,72.9,15.4,30.08,WSW,253,0.0,1.0,11,0.00,,---,0.00,VWS V14.01,2013-01-18 22:37:00,
2013-01-18 15:42:00,73.4,15.7,30.07,West,276,6.0,6.0,11,0.00,,---,0.00,VWS V14.01,2013-01-18 22:42:00,
2013-01-18 15:47:00,72.8,15.3,30.07,West,262,1.0,6.0,11,0.00,,---,0.00,VWS V14.01,2013-01-18 22:47:00,
2013-01-18 15:52:00,72.9,15.4,30.07,SSW,197,0.0,6.0,11,0.00,,---,0.00,VWS V14.01,2013-01-18 22:52:00,
2013-01-18 15:57:00,72.9,15.4,30.07,SW,215,4.0,6.0,11,0.00,,---,0.00,VWS V14.01,2013-01-18 22:57:00,
2013-01-18 16:02:00,72.9,15.4,30.07,SW,219,2.0,6.0,11,0.00,,---,0.00,VWS V14.01,2013-01-18 23:02:00,
2013-01-18 16:07:00,72.8,15.3,30.07,SSW,207,3.0,4.0,11,0.00,,---,0.00,VWS V14.01,2013-01-18 23:07:00,
2013-01-18 16:12:00,72.4,12.8,30.07,West,276,0.0,4.0,10,0.00,,---,0.00,VWS V14.01,2013-01-18 23:12:00,
2013-01-18 16:17:00,72.6,12.9,30.07,SSE,160,1.0,4.0,10,0.00,,---,0.00,VWS V14.01,2013-01-18 23:17:00,
2013-01-18 16:22:00,73.0,15.4,30.07,SW,217,0.0,4.0,11,0.00,,---,0.00,VWS V14.01,2013-01-18 23:22:00,
2013-01-18 16:27:00,72.8,13.1,30.08,WSW,238,2.0,4.0,10,0.00,,---,0.00,VWS V14.01,2013-01-18 23:27:00,
2013-01-18 16:32:00,72.6,15.1,30.07,South,184,0.0,4.0,11,0.00,,---,0.00,VWS V14.01,2013-01-18 23:32:00,
2013-01-18 16:37:00,72.6,12.9,30.08,WSW,240,1.0,3.0,10,0.00,,---,0.00,VWS V14.01,2013-01-18 23:37:00,
2013-01-18 16:42:00,72.0,12.5,30.08,WSW,256,0.0,3.0,10,0.00,,---,0.00,VWS V14.01,2013-01-18 23:42:00,
2013-01-18 16:47:00,72.3,12.7,30.08,WSW,256,0.0,3.0,10,0.00,,---,0.00,VWS V14.01,2013-01-18 23:47:00,
2013-01-18 16:52:00,72.4,12.8,30.08,WSW,257,0.0,3.0,10,0.00,,---,0.00,VWS V14.01,2013-01-18 23:52:00,
2013-01-18 16:58:00,71.9,14.6,30.08,WSW,256,0.0,3.0,11,0.00,,---,0.00,VWS V14.01,2013-01-18 23:58:00,
2013-01-18 17:03:00,71.7,12.3,30.08,WSW,257,0.0,3.0,10,0.00,,---,0.00,VWS V14.01,2013-01-19 00:03:00,
2013-01-18 17:08:00,71.0,13.9,30.08,WSW,257,0.0,0.0,11,0.00,,---,0.00,VWS V14.01,2013-01-19 00:08:00,
2013-01-18 17:13:00,70.5,15.5,30.08,WSW,257,0.0,0.0,12,0.00,,---,0.00,VWS V14.01,2013-01-19 00:13:00,
2013-01-18 17:18:00,69.9,16.9,30.08,WSW,257,0.0,0.0,13,0.00,,---,0.00,VWS V14.01,2013-01-19 00:18:00,
2013-01-18 17:23:00,69.9,16.9,30.08,WSW,257,0.0,0.0,13,0.00,,---,0.00,VWS V14.01,2013-01-19 00:23:00,
2013-01-18 17:28:00,69.8,16.8,30.08,WSW,257,0.0,0.0,13,0.00,,---,0.00,VWS V14.01,2013-01-19 00:28:00,
2013-01-18 17:33:00,68.5,19.1,30.08,NNE,25,0.0,1.0,15,0.00,,---,0.00,VWS V14.01,2013-01-19 00:33:00,
2013-01-18 17:38:00,66.9,19.3,30.08,NNW,346,0.0,2.0,16,0.00,,---,0.00,VWS V14.01,2013-01-19 00:38:00,
2013-01-18 17:43:00,65.9,18.5,30.08,NNE,25,0.0,5.0,16,0.00,,---,0.00,VWS V14.01,2013-01-19 00:43:00,
2013-01-18 17:48:00,65.1,19.2,30.09,NNE,12,1.0,5.0,17,0.00,,---,0.00,VWS V14.01,2013-01-19 00:48:00,
2013-01-18 17:53:00,64.3,18.6,30.09,NE,34,2.0,5.0,17,0.00,,---,0.00,VWS V14.01,2013-01-19 00:53:00,
2013-01-18 17:58:00,63.6,19.4,30.09,NNE,30,4.0,5.0,18,0.00,,---,0.00,VWS V14.01,2013-01-19 00:58:00,
2013-01-18 18:03:00,63.2,19.0,30.09,West,271,2.0,4.0,18,0.00,,---,0.00,VWS V14.01,2013-01-19 01:03:00,
2013-01-18 18:09:00,62.8,20.0,30.09,NNE,18,2.0,6.0,19,0.00,,---,0.00,VWS V14.01,2013-01-19 01:09:00,
2013-01-18 18:13:00,62.3,19.5,30.09,NNW,334,4.0,6.0,19,0.00,,---,0.00,VWS V14.01,2013-01-19 01:13:00,
2013-01-18 18:19:00,62.0,20.5,30.09,North,7,1.0,7.0,20,0.00,,---,0.00,VWS V14.01,2013-01-19 01:19:00,
2013-01-18 18:24:00,61.6,20.2,30.10,ENE,58,2.0,7.0,20,0.00,,---,0.00,VWS V14.01,2013-01-19 01:24:00,
2013-01-18 18:29:00,61.3,19.9,30.10,North,354,2.0,8.0,20,0.00,,---,0.00,VWS V14.01,2013-01-19 01:29:00,
2013-01-18 18:34:00,61.1,20.9,30.10,NNE,25,2.0,5.0,21,0.00,,---,0.00,VWS V14.01,2013-01-19 01:34:00,
2013-01-18 18:39:00,60.7,20.6,30.10,NNE,20,4.0,6.0,21,0.00,,---,0.00,VWS V14.01,2013-01-19 01:39:00,
2013-01-18 18:44:00,60.5,20.4,30.10,NNW,343,5.0,8.0,21,0.00,,---,0.00,VWS V14.01,2013-01-19 01:44:00,
2013-01-18 18:49:00,60.1,20.1,30.10,NNW,332,2.0,8.0,21,0.00,,---,0.00,VWS V14.01,2013-01-19 01:49:00,
2013-01-18 18:54:00,59.7,20.8,30.10,NNW,334,3.0,8.0,22,0.00,,---,0.00,VWS V14.01,2013-01-19 01:54:00,
2013-01-18 18:59:00,59.3,20.5,30.10,NNE,15,2.0,8.0,22,0.00,,---,0.00,VWS V14.01,2013-01-19 01:59:00,
2013-01-18 19:04:00,59.0,21.3,30.11,North,7,3.0,7.0,23,0.00,,---,0.00,VWS V14.01,2013-01-19 02:04:00,
2013-01-18 19:09:00,58.6,20.9,30.11,NW,313,3.0,7.0,23,0.00,,---,0.00,VWS V14.01,2013-01-19 02:09:00,
2013-01-18 19:14:00,58.3,20.7,30.11,NE,44,6.0,8.0,23,0.00,,---,0.00,VWS V14.01,2013-01-19 02:14:00,
2013-01-18 19:19:00,58.1,20.5,30.11,NNE,16,3.0,8.0,23,0.00,,---,0.00,VWS V14.01,2013-01-19 02:19:00,
2013-01-18 19:24:00,57.8,21.3,30.11,NNE,20,4.0,8.0,24,0.00,,---,0.00,VWS V14.01,2013-01-19 02:24:00,
2013-01-18 19:29:00,57.6,21.1,30.11,North,359,4.0,8.0,24,0.00,,---,0.00,VWS V14.01,2013-01-19 02:29:00,
2013-01-18 19:34:00,57.2,20.8,30.11,NNE,18,3.0,5.0,24,0.00,,---,0.00,VWS V14.01,2013-01-19 02:34:00,
2013-01-18 19:39:00,56.9,20.5,30.11,NE,46,2.0,7.0,24,0.00,,---,0.00,VWS V14.01,2013-01-19 02:39:00,
2013-01-18 19:45:00,56.7,21.3,30.11,NE,37,2.0,7.0,25,0.00,,---,0.00,VWS V14.01,2013-01-19 02:45:00,
2013-01-18 19:50:00,56.5,21.1,30.11,NNE,15,4.0,7.0,25,0.00,,---,0.00,VWS V14.01,2013-01-19 02:50:00,
2013-01-18 19:55:00,56.4,21.0,30.11,NW,321,2.0,7.0,25,0.00,,---,0.00,VWS V14.01,2013-01-19 02:55:00,
2013-01-18 20:00:00,56.2,20.9,30.11,NNE,31,1.0,7.0,25,0.00,,---,0.00,VWS V14.01,2013-01-19 03:00:00,
2013-01-18 20:05:00,56.1,20.8,30.11,NNE,15,1.0,4.0,25,0.00,,---,0.00,VWS V14.01,2013-01-19 03:05:00,
2013-01-18 20:10:00,56.0,20.7,30.11,NNE,29,1.0,4.0,25,0.00,,---,0.00,VWS V14.01,2013-01-19 03:10:00,
2013-01-18 20:15:00,55.4,21.1,30.11,NE,40,1.0,4.0,26,0.00,,---,0.00,VWS V14.01,2013-01-19 03:15:00,
2013-01-18 20:20:00,54.3,21.0,30.11,NE,48,1.0,4.0,27,0.00,,---,0.00,VWS V14.01,2013-01-19 03:20:00,
2013-01-18 20:25:00,53.7,21.4,30.11,NNE,30,2.0,4.0,28,0.00,,---,0.00,VWS V14.01,2013-01-19 03:25:00,
2013-01-18 20:30:00,53.2,21.0,30.11,NE,37,2.0,4.0,28,0.00,,---,0.00,VWS V14.01,2013-01-19 03:30:00,
2013-01-18 20:35:00,52.9,20.7,30.11,NE,44,1.0,3.0,28,0.00,,---,0.00,VWS V14.01,2013-01-19 03:35:00,
2013-01-18 20:40:00,52.8,21.4,30.11,NE,53,1.0,4.0,29,0.00,,---,0.00,VWS V14.01,2013-01-19 03:40:00,
2013-01-18 20:45:00,53.1,20.9,30.11,NE,53,1.0,4.0,28,0.00,,---,0.00,VWS V14.01,2013-01-19 03:45:00,
2013-01-18 20:50:00,53.4,21.1,30.11,ENE,57,0.0,4.0,28,0.00,,---,0.00,VWS V14.01,2013-01-19 03:50:00,
2013-01-18 20:56:00,52.8,21.4,30.11,ENE,57,1.0,4.0,29,0.00,,---,0.00,VWS V14.01,2013-01-19 03:56:00,
2013-01-18 21:01:00,51.5,21.1,30.11,ENE,60,2.0,4.0,30,0.00,,---,0.00,VWS V14.01,2013-01-19 04:01:00,
2013-01-18 21:06:00,50.1,21.4,30.11,ENE,74,1.0,2.0,32,0.00,,---,0.00,VWS V14.01,2013-01-19 04:06:00,
2013-01-18 21:11:00,49.5,21.6,30.11,ENE,58,2.0,3.0,33,0.00,,---,0.00,VWS V14.01,2013-01-19 04:11:00,
2013-01-18 21:16:00,48.9,21.8,30.12,ENE,65,2.0,3.0,34,0.00,,---,0.00,VWS V14.01,2013-01-19 04:16:00,
2013-01-18 21:21:00,48.3,21.9,30.11,NE,56,1.0,3.0,35,0.00,,---,0.00,VWS V14.01,2013-01-19 04:21:00,
2013-01-18 21:26:00,47.9,21.6,30.12,NE,48,2.0,3.0,35,0.00,,---,0.00,VWS V14.01,2013-01-19 04:26:00,
2013-01-18 21:31:00,47.7,22.1,30.12,NE,47,2.0,4.0,36,0.00,,---,0.00,VWS V14.01,2013-01-19 04:31:00,
2013-01-18 21:36:00,47.6,21.3,30.12,NE,47,0.0,3.0,35,0.00,,---,0.00,VWS V14.01,2013-01-19 04:36:00,
2013-01-18 21:42:00,47.5,21.9,30.12,NE,47,0.0,3.0,36,0.00,,---,0.00,VWS V14.01,2013-01-19 04:42:00,
2013-01-18 21:47:00,47.4,21.8,30.12,NE,47,0.0,3.0,36,0.00,,---,0.00,VWS V14.01,2013-01-19 04:47:00,
2013-01-18 21:52:00,46.9,21.4,30.12,ENE,64,1.0,3.0,36,0.00,,---,0.00,VWS V14.01,2013-01-19 04:52:00,
2013-01-18 21:57:00,46.6,21.7,30.12,NE,56,1.0,3.0,37,0.00,,---,0.00,VWS V14.01,2013-01-19 04:57:00,
2013-01-18 22:00:00,46.3,21.5,30.12,ENE,65,2.0,3.0,37,0.00,,---,0.00,VWS V14.01,2013-01-19 05:00:00,
2013-01-18 22:02:00,46.2,22.0,30.12,ENE,72,2.0,3.0,38,0.00,,---,0.00,VWS V14.01,2013-01-19 05:02:00,
2013-01-18 22:03:00,46.1,21.9,30.12,ENE,63,2.0,3.0,38,0.00,,---,0.00,VWS V14.01,2013-01-19 05:03:00,
2013-01-18 22:08:00,45.9,21.7,30.12,NE,49,1.0,3.0,38,0.00,,---,0.00,VWS V14.01,2013-01-19 05:08:00,
2013-01-18 22:13:00,45.9,21.7,30.12,NE,56,2.0,3.0,38,0.00,,---,0.00,VWS V14.01,2013-01-19 05:13:00,
2013-01-18 22:18:00,46.1,21.9,30.13,ENE,68,1.0,3.0,38,0.00,,---,0.00,VWS V14.01,2013-01-19 05:18:00,
2013-01-18 22:23:00,46.0,21.8,30.13,NE,47,1.0,3.0,38,0.00,,---,0.00,VWS V14.01,2013-01-19 05:23:00,
2013-01-18 22:28:00,45.5,22.0,30.13,ENE,64,2.0,3.0,39,0.00,,---,0.00,VWS V14.01,2013-01-19 05:28:00,
2013-01-18 22:33:00,45.2,21.7,30.13,NE,54,2.0,3.0,39,0.00,,---,0.00,VWS V14.01,2013-01-19 05:33:00,
2013-01-18 22:38:00,45.1,21.6,30.13,NE,54,2.0,4.0,39,0.00,,---,0.00,VWS V14.01,2013-01-19 05:38:00,
2013-01-18 22:43:00,45.3,21.8,30.13,NE,53,2.0,4.0,39,0.00,,---,0.00,VWS V14.01,2013-01-19 05:43:00,
2013-01-18 22:49:00,45.5,21.4,30.13,ENE,71,2.0,5.0,38,0.00,,---,0.00,VWS V14.01,2013-01-19 05:49:00,
2013-01-18 22:54:00,45.5,21.4,30.13,NE,47,1.0,5.0,38,0.00,,---,0.00,VWS V14.01,2013-01-19 05:54:00,
2013-01-18 22:59:00,45.8,21.0,30.14,NE,47,1.0,5.0,37,0.00,,---,0.00,VWS V14.01,2013-01-19 05:59:00,
2013-01-18 23:04:00,45.8,21.0,30.13,ENE,61,2.0,2.0,37,0.00,,---,0.00,VWS V14.01,2013-01-19 06:04:00,
2013-01-18 23:09:00,46.3,20.8,30.13,NNE,25,5.0,5.0,36,0.00,,---,0.00,VWS V14.01,2013-01-19 06:09:00,
2013-01-18 23:14:00,47.3,21.0,30.13,NE,47,3.0,6.0,35,0.00,,---,0.00,VWS V14.01,2013-01-19 06:14:00,
2013-01-18 23:19:00,48.1,20.4,30.13,NE,43,2.0,6.0,33,0.00,,---,0.00,VWS V14.01,2013-01-19 06:19:00,
2013-01-18 23:24:00,47.7,20.7,30.13,NE,53,2.0,6.0,34,0.00,,---,0.00,VWS V14.01,2013-01-19 06:24:00,
2013-01-18 23:29:00,47.0,20.8,30.13,NE,51,2.0,6.0,35,0.00,,---,0.00,VWS V14.01,2013-01-19 06:29:00,
2013-01-18 23:34:00,46.5,21.0,30.13,NE,50,3.0,4.0,36,0.00,,---,0.00,VWS V14.01,2013-01-19 06:34:00,
2013-01-18 23:39:00,46.7,21.2,30.13,NE,46,3.0,6.0,36,0.00,,---,0.00,VWS V14.01,2013-01-19 06:39:00,
2013-01-18 23:44:00,46.7,21.2,30.13,NE,47,2.0,6.0,36,0.00,,---,0.00,VWS V14.01,2013-01-19 06:44:00,
2013-01-18 23:49:00,46.2,20.7,30.13,NE,54,1.0,6.0,36,0.00,,---,0.00,VWS V14.01,2013-01-19 06:49:00,
2013-01-18 23:55:00,45.8,21.0,30.13,NE,51,2.0,6.0,37,0.00,,---,0.00,VWS V14.01,2013-01-19 06:55:00,